| time (UTC) | temp F | wind direction | speed MPH | gust MPH | rain 1hr in | rain 24hr in | rain mn in | humidity % | barometer mb |
| 20260904075543 | 69 | 185 | 9.0 | 16.0 | 0.00 | 0.00 | 0.00 | 73 | 1017.2 |
| 20260904075044 | 69 | 134 | 7.0 | 13.0 | 0.00 | 0.00 | 0.00 | 73 | 1017.3 |
| 20260904074542 | 69 | 129 | 6.0 | 16.0 | 0.00 | 0.00 | 0.00 | 73 | 1017.2 |
| 20260904074048 | 69 | 143 | 16.0 | 16.0 | 0.00 | 0.00 | 0.00 | 74 | 1017.3 |
| 20260904073548 | 68 | 178 | 8.0 | 14.0 | 0.00 | 0.00 | 0.00 | 74 | 1017.1 |
| 20260904073043 | 68 | 174 | 5.0 | 14.0 | 0.00 | 0.00 | 0.00 | 74 | 1017.1 |
| 20260904072543 | 68 | 154 | 6.0 | 16.0 | 0.00 | 0.00 | 0.00 | 74 | 1017.1 |
| 20260904072047 | 68 | 124 | 11.0 | 13.0 | 0.00 | 0.00 | 0.00 | 75 | 1017.1 |
| 20260904071542 | 67 | 155 | 5.0 | 12.0 | 0.00 | 0.00 | 0.00 | 75 | 1017.2 |
| 20260904071046 | 67 | 129 | 9.0 | 11.0 | 0.00 | 0.00 | 0.00 | 75 | 1017.3 |
| 20260904070546 | 67 | 139 | 4.0 | 7.0 | 0.00 | 0.00 | 0.00 | 75 | 1017.3 |
| 20260904070045 | 67 | 171 | 5.0 | 10.0 | 0.00 | 0.00 | 0.00 | 76 | 1017.4 |
| 20260904065542 | 66 | 160 | 7.0 | 9.0 | 0.00 | 0.00 | 0.00 | 76 | 1017.5 |
| 20260904065044 | 66 | 153 | 5.0 | 11.0 | 0.00 | 0.00 | 0.00 | 76 | 1017.6 |
| 20260904064545 | 66 | 131 | 8.0 | 10.0 | 0.00 | 0.00 | 0.00 | 76 | 1017.6 |
| 20260904064043 | 66 | 179 | 7.0 | 13.0 | 0.00 | 0.00 | 0.00 | 76 | 1017.5 |
| 20260904063542 | 66 | 145 | 7.0 | 10.0 | 0.00 | 0.00 | 0.00 | 76 | 1017.5 |
| 20260904063046 | 65 | 155 | 4.0 | 10.0 | 0.00 | 0.00 | 0.00 | 76 | 1017.5 |
| 20260904062545 | 65 | 172 | 7.0 | 11.0 | 0.00 | 0.00 | 0.00 | 77 | 1017.5 |
| 20260904062044 | 65 | 122 | 8.0 | 11.0 | 0.00 | 0.00 | 0.00 | 77 | 1017.5 |
| 20260904061546 | 65 | 163 | 8.0 | 15.0 | 0.00 | 0.00 | 0.00 | 77 | 1017.4 |
| 20260904061042 | 65 | 102 | 8.0 | 10.0 | 0.00 | 0.00 | 0.00 | 78 | 1017.5 |
| 20260904060545 | 64 | 160 | 3.0 | 11.0 | 0.00 | 0.00 | 0.00 | 79 | 1017.6 |
| 20260904060042 | 64 | 159 | 9.0 | 9.0 | 0.00 | 0.00 | 0.00 | 79 | 1017.5 |
| 20260904055542 | 64 | 137 | 6.0 | 11.0 | 0.00 | 0.00 | 0.00 | 79 | 1017.7 |
| 20260904055044 | 64 | 151 | 8.0 | 9.0 | 0.00 | 0.00 | 0.00 | 79 | 1017.7 |
| 20260904054542 | 64 | 106 | 4.0 | 8.0 | 0.00 | 0.00 | 0.00 | 79 | 1017.6 |
| 20260904054042 | 64 | 131 | 6.0 | 8.0 | 0.00 | 0.00 | 0.00 | 79 | 1017.6 |
| 20260904053545 | 64 | 131 | 5.0 | 11.0 | 0.00 | 0.00 | 0.00 | 79 | 1017.7 |
| 20260904053045 | 64 | 164 | 11.0 | 11.0 | 0.00 | 0.00 | 0.00 | 80 | 1017.8 |
| 20260904052542 | 64 | 154 | 7.0 | 12.0 | 0.00 | 0.00 | 0.00 | 80 | 1018.0 |
| 20260904052047 | 64 | 166 | 5.0 | 11.0 | 0.00 | 0.00 | 0.00 | 80 | 1018.0 |
| 20260904051542 | 64 | 136 | 7.0 | 12.0 | 0.00 | 0.00 | 0.00 | 79 | 1018.1 |
| 20260904051045 | 64 | 149 | 7.0 | 12.0 | 0.00 | 0.00 | 0.00 | 79 | 1018.0 |
| 20260904050542 | 64 | 164 | 7.0 | 15.0 | 0.00 | 0.00 | 0.00 | 79 | 1018.1 |
| 20260904050042 | 64 | 151 | 7.0 | 14.0 | 0.00 | 0.00 | 0.00 | 79 | 1018.0 |
| 20260904045551 | 63 | 172 | 10.0 | 13.0 | 0.00 | 0.00 | 0.00 | 80 | 1018.0 |
| 20260904045044 | 63 | 158 | 5.0 | 14.0 | 0.00 | 0.00 | 0.00 | 80 | 1018.0 |
| 20260904044545 | 63 | 160 | 9.0 | 12.0 | 0.00 | 0.00 | 0.00 | 80 | 1017.9 |
| 20260904044045 | 63 | 164 | 8.0 | 14.0 | 0.00 | 0.00 | 0.00 | 81 | 1018.1 |
| 20260904043548 | 63 | 162 | 10.0 | 13.0 | 0.00 | 0.00 | 0.00 | 81 | 1018.0 |
| 20260904043045 | 63 | 154 | 7.0 | 13.0 | 0.00 | 0.00 | 0.00 | 81 | 1018.0 |
| 20260904042542 | 63 | 134 | 9.0 | 14.0 | 0.00 | 0.00 | 0.00 | 81 | 1018.0 |
| 20260904042047 | 63 | 190 | 6.0 | 12.0 | 0.00 | 0.00 | 0.00 | 82 | 1018.0 |
| 20260904041542 | 63 | 179 | 8.0 | 11.0 | 0.00 | 0.00 | 0.00 | 81 | 1018.0 |
| 20260904041048 | 63 | 147 | 10.0 | 12.0 | 0.00 | 0.00 | 0.00 | 82 | 1018.0 |
| 20260904040548 | 63 | 161 | 6.0 | 13.0 | 0.00 | 0.00 | 0.00 | 82 | 1018.0 |
| 20260904040042 | 63 | 183 | 11.0 | 12.0 | 0.00 | 0.00 | 0.00 | 82 | 1017.8 |
| 20260904035542 | 63 | 168 | 7.0 | 10.0 | 0.00 | 0.00 | 0.00 | 82 | 1017.9 |
| 20260904035047 | 63 | 179 | 7.0 | 10.0 | 0.00 | 0.00 | 0.00 | 82 | 1017.9 |
| 20260904034545 | 63 | 168 | 7.0 | 11.0 | 0.00 | 0.00 | 0.00 | 82 | 1018.0 |
| 20260904034045 | 63 | 176 | 8.0 | 12.0 | 0.00 | 0.00 | 0.00 | 82 | 1017.9 |
| 20260904033545 | 63 | 164 | 6.0 | 12.0 | 0.00 | 0.00 | 0.00 | 82 | 1018.0 |
| 20260904033048 | 63 | 190 | 9.0 | 11.0 | 0.00 | 0.00 | 0.00 | 81 | 1018.0 |
| 20260904032545 | 63 | 160 | 7.0 | 9.0 | 0.00 | 0.00 | 0.00 | 81 | 1018.1 |
| 20260904032047 | 63 | 154 | 5.0 | 11.0 | 0.00 | 0.00 | 0.00 | 81 | 1018.1 |
| 20260904031545 | 63 | 151 | 7.0 | 12.0 | 0.00 | 0.00 | 0.00 | 81 | 1018.2 |
| 20260904031042 | 63 | 181 | 6.0 | 11.0 | 0.00 | 0.00 | 0.00 | 81 | 1018.4 |
| 20260904030551 | 63 | 184 | 8.0 | 11.0 | 0.00 | 0.00 | 0.00 | 81 | 1018.4 |
| 20260904030045 | 63 | 133 | 8.0 | 11.0 | 0.00 | 0.00 | 0.00 | 81 | 1018.4 |
| 20260904025543 | 63 | 156 | 7.0 | 13.0 | 0.00 | 0.00 | 0.00 | 82 | 1018.4 |
| 20260904025047 | 63 | 154 | 10.0 | 11.0 | 0.00 | 0.00 | 0.00 | 82 | 1018.5 |
| 20260904024546 | 63 | 149 | 6.0 | 10.0 | 0.00 | 0.00 | 0.00 | 82 | 1018.5 |
| 20260904024042 | 63 | 177 | 9.0 | 11.0 | 0.00 | 0.00 | 0.00 | 82 | 1018.6 |
| 20260904023542 | 63 | 149 | 10.0 | 11.0 | 0.00 | 0.00 | 0.00 | 81 | 1018.5 |
| 20260904023043 | 63 | 143 | 8.0 | 11.0 | 0.00 | 0.00 | 0.00 | 81 | 1018.5 |
| 20260904022542 | 63 | 163 | 7.0 | 11.0 | 0.00 | 0.00 | 0.00 | 81 | 1018.6 |
| 20260904022044 | 63 | 184 | 7.0 | 11.0 | 0.00 | 0.00 | 0.00 | 81 | 1018.5 |
| 20260904021546 | 63 | 174 | 6.0 | 11.0 | 0.00 | 0.00 | 0.00 | 81 | 1018.6 |
| 20260904021045 | 64 | 174 | 7.0 | 12.0 | 0.00 | 0.00 | 0.00 | 81 | 1018.6 |
| 20260904020542 | 64 | 174 | 10.0 | 12.0 | 0.00 | 0.00 | 0.00 | 80 | 1018.6 |
| 20260904020042 | 64 | 177 | 8.0 | 13.0 | 0.00 | 0.00 | 0.00 | 80 | 1018.7 |
| 20260904015551 | 64 | 162 | 7.0 | 11.0 | 0.00 | 0.00 | 0.00 | 80 | 1018.8 |
| 20260904015044 | 64 | 132 | 8.0 | 10.0 | 0.00 | 0.00 | 0.00 | 80 | 1018.7 |
| 20260904014545 | 64 | 173 | 9.0 | 10.0 | 0.00 | 0.00 | 0.00 | 80 | 1018.7 |
| 20260904014048 | 64 | 158 | 8.0 | 10.0 | 0.00 | 0.00 | 0.00 | 80 | 1018.6 |
| 20260904013551 | 64 | 150 | 7.0 | 10.0 | 0.00 | 0.00 | 0.00 | 80 | 1018.6 |
| 20260904013042 | 64 | 159 | 5.0 | 10.0 | 0.00 | 0.00 | 0.00 | 80 | 1018.6 |
| 20260904012542 | 64 | 153 | 7.0 | 12.0 | 0.00 | 0.00 | 0.00 | 80 | 1018.7 |
| 20260904012047 | 64 | 166 | 5.0 | 10.0 | 0.00 | 0.00 | 0.00 | 80 | 1018.7 |
| 20260904011542 | 64 | 178 | 4.0 | 10.0 | 0.00 | 0.00 | 0.00 | 80 | 1018.7 |
| 20260904011048 | 64 | 174 | 7.0 | 9.0 | 0.00 | 0.00 | 0.00 | 80 | 1018.8 |
| 20260904010542 | 64 | 156 | 6.0 | 12.0 | 0.00 | 0.00 | 0.00 | 80 | 1018.8 |
| 20260904010042 | 64 | 148 | 4.0 | 12.0 | 0.00 | 0.00 | 0.00 | 80 | 1018.9 |
| 20260904005542 | 64 | 135 | 4.0 | 12.0 | 0.00 | 0.00 | 0.00 | 80 | 1018.9 |
| 20260904005050 | 64 | 162 | 5.0 | 11.0 | 0.00 | 0.00 | 0.00 | 80 | 1019.0 |
| 20260904004545 | 64 | 144 | 8.0 | 11.0 | 0.00 | 0.00 | 0.00 | 80 | 1018.8 |
| 20260904004048 | 64 | 165 | 9.0 | 13.0 | 0.00 | 0.00 | 0.00 | 80 | 1018.7 |
| 20260904003548 | 64 | 152 | 5.0 | 11.0 | 0.00 | 0.00 | 0.00 | 80 | 1018.8 |
| 20260904003045 | 64 | 141 | 9.0 | 11.0 | 0.00 | 0.00 | 0.00 | 81 | 1018.9 |
| 20260904002551 | 63 | 183 | 5.0 | 10.0 | 0.00 | 0.00 | 0.00 | 81 | 1019.0 |
| 20260904002050 | 63 | 140 | 7.0 | 10.0 | 0.00 | 0.00 | 0.00 | 81 | 1018.9 |
| 20260904001542 | 63 | 176 | 6.0 | 9.0 | 0.00 | 0.00 | 0.00 | 81 | 1019.0 |
| 20260904001045 | 63 | 170 | 8.0 | 9.0 | 0.00 | 0.00 | 0.00 | 81 | 1019.2 |
| 20260904000545 | 64 | 104 | 4.0 | 10.0 | 0.00 | 0.00 | 0.00 | 81 | 1019.3 |
| 20260904000042 | 64 | 175 | 7.0 | 10.0 | 0.00 | 0.00 | 0.00 | 81 | 1019.2 |
| 20260903235542 | 64 | 143 | 6.0 | 10.0 | 0.00 | 0.00 | 0.00 | 80 | 1019.2 |
| 20260903235050 | 64 | 155 | 6.0 | 9.0 | 0.00 | 0.00 | 0.00 | 80 | 1019.2 |
| 20260903234542 | 64 | 146 | 3.0 | 11.0 | 0.00 | 0.00 | 0.00 | 80 | 1019.3 |
| 20260903234042 | 64 | 149 | 6.0 | 10.0 | 0.00 | 0.00 | 0.00 | 80 | 1019.3 |
| 20260903233543 | 64 | 166 | 3.0 | 10.0 | 0.00 | 0.00 | 0.00 | 80 | 1019.4 |
| 20260903233045 | 64 | 162 | 6.0 | 11.0 | 0.00 | 0.00 | 0.00 | 80 | 1019.4 |
| 20260903232542 | 64 | 101 | 7.0 | 11.0 | 0.00 | 0.00 | 0.00 | 80 | 1019.4 |
| 20260903232047 | 64 | 139 | 4.0 | 8.0 | 0.00 | 0.00 | 0.00 | 80 | 1019.6 |
| 20260903231542 | 64 | 137 | 4.0 | 9.0 | 0.00 | 0.00 | 0.00 | 80 | 1019.6 |
| 20260903231043 | 64 | 173 | 5.0 | 9.0 | 0.00 | 0.00 | 0.00 | 80 | 1019.6 |
| 20260903230545 | 64 | 174 | 6.0 | 11.0 | 0.00 | 0.00 | 0.00 | 80 | 1019.5 |
| 20260903230048 | 63 | 161 | 8.0 | 13.0 | 0.00 | 0.00 | 0.00 | 81 | 1019.7 |
| 20260903225542 | 63 | 154 | 4.0 | 12.0 | 0.00 | 0.00 | 0.00 | 81 | 1019.6 |
| 20260903225050 | 63 | 131 | 6.0 | 11.0 | 0.00 | 0.00 | 0.00 | 81 | 1019.6 |
| 20260903224546 | 63 | 151 | 8.0 | 12.0 | 0.00 | 0.00 | 0.00 | 81 | 1019.7 |
| 20260903224045 | 63 | 157 | 6.0 | 12.0 | 0.00 | 0.00 | 0.00 | 81 | 1019.6 |
| 20260903223542 | 63 | 146 | 6.0 | 11.0 | 0.00 | 0.00 | 0.00 | 81 | 1019.6 |
| 20260903223042 | 64 | 160 | 8.0 | 12.0 | 0.00 | 0.00 | 0.00 | 80 | 1019.4 |
| 20260903222545 | 63 | 138 | 6.0 | 14.0 | 0.00 | 0.00 | 0.00 | 80 | 1019.4 |
| 20260903222044 | 63 | 150 | 6.0 | 12.0 | 0.00 | 0.00 | 0.00 | 81 | 1019.4 |
| 20260903221542 | 63 | 186 | 6.0 | 13.0 | 0.00 | 0.00 | 0.00 | 81 | 1019.6 |
| 20260903221045 | 63 | 157 | 8.0 | 11.0 | 0.00 | 0.00 | 0.00 | 81 | 1019.6 |
| 20260903220542 | 63 | 199 | 7.0 | 9.0 | 0.00 | 0.00 | 0.00 | 81 | 1019.6 |
| 20260903220042 | 64 | 144 | 4.0 | 10.0 | 0.00 | 0.00 | 0.00 | 80 | 1019.6 |
| 20260903215548 | 64 | 120 | 9.0 | 11.0 | 0.00 | 0.00 | 0.00 | 80 | 1019.7 |
| 20260903215050 | 64 | 161 | 6.0 | 10.0 | 0.00 | 0.00 | 0.00 | 80 | 1019.8 |
| 20260903214542 | 64 | 151 | 7.0 | 11.0 | 0.00 | 0.00 | 0.00 | 80 | 1019.8 |
| 20260903214042 | 64 | 97 | 5.0 | 10.0 | 0.00 | 0.00 | 0.00 | 80 | 1019.8 |
| 20260903213542 | 64 | 161 | 6.0 | 11.0 | 0.00 | 0.00 | 0.00 | 79 | 1019.8 |
| 20260903213042 | 64 | 167 | 8.0 | 12.0 | 0.00 | 0.00 | 0.00 | 79 | 1019.8 |
| 20260903212545 | 64 | 155 | 8.0 | 10.0 | 0.00 | 0.00 | 0.00 | 79 | 1019.8 |
| 20260903212047 | 64 | 170 | 9.0 | 10.0 | 0.00 | 0.00 | 0.00 | 79 | 1019.9 |
| 20260903211548 | 64 | 138 | 8.0 | 11.0 | 0.00 | 0.00 | 0.00 | 79 | 1019.8 |
| 20260903211045 | 64 | 163 | 5.0 | 12.0 | 0.00 | 0.00 | 0.00 | 79 | 1019.8 |
| 20260903210545 | 64 | 197 | 8.0 | 12.0 | 0.00 | 0.00 | 0.00 | 79 | 1019.9 |
| 20260903210042 | 64 | 168 | 3.0 | 13.0 | 0.00 | 0.00 | 0.00 | 79 | 1020.0 |
| 20260903205553 | 64 | 158 | 10.0 | 12.0 | 0.00 | 0.00 | 0.00 | 80 | 1020.0 |
| 20260903205045 | 64 | 168 | 9.0 | 11.0 | 0.00 | 0.00 | 0.00 | 80 | 1020.0 |
| 20260903204542 | 64 | 146 | 7.0 | 11.0 | 0.00 | 0.00 | 0.00 | 80 | 1020.2 |
| 20260903204051 | 63 | 135 | 6.0 | 10.0 | 0.00 | 0.00 | 0.00 | 80 | 1020.2 |
| 20260903203542 | 63 | 184 | 7.0 | 8.0 | 0.00 | 0.00 | 0.00 | 80 | 1020.2 |
| 20260903203042 | 64 | 161 | 4.0 | 10.0 | 0.00 | 0.00 | 0.00 | 80 | 1020.2 |
| 20260903202547 | 64 | 116 | 7.0 | 10.0 | 0.00 | 0.00 | 0.00 | 79 | 1020.1 |
| 20260903202042 | 64 | 127 | 5.0 | 14.0 | 0.00 | 0.00 | 0.00 | 79 | 1020.2 |
| 20260903201542 | 64 | 147 | 6.0 | 11.0 | 0.00 | 0.00 | 0.00 | 79 | 1020.2 |
| 20260903201045 | 64 | 152 | 5.0 | 8.0 | 0.00 | 0.00 | 0.00 | 79 | 1020.1 |
| 20260903200548 | 64 | 146 | 3.0 | 9.0 | 0.00 | 0.00 | 0.00 | 79 | 1020.1 |
| 20260903200045 | 64 | 135 | 3.0 | 7.0 | 0.00 | 0.00 | 0.00 | 79 | 1020.1 |
| 20260903195547 | 64 | 120 | 3.0 | 8.0 | 0.00 | 0.00 | 0.00 | 78 | 1020.0 |
| 20260903195048 | 64 | 141 | 5.0 | 8.0 | 0.00 | 0.00 | 0.00 | 78 | 1020.0 |
| 20260903194543 | 64 | 139 | 5.0 | 8.0 | 0.00 | 0.00 | 0.00 | 78 | 1020.0 |
| 20260903194045 | 64 | 107 | 6.0 | 11.0 | 0.00 | 0.00 | 0.00 | 78 | 1019.9 |
| 20260903193548 | 64 | 124 | 4.0 | 10.0 | 0.00 | 0.00 | 0.00 | 78 | 1020.0 |
| 20260903193051 | 64 | 143 | 4.0 | 7.0 | 0.00 | 0.00 | 0.00 | 78 | 1020.1 |
| 20260903192550 | 64 | 147 | 5.0 | 5.0 | 0.00 | 0.00 | 0.00 | 78 | 1020.2 |
| 20260903192045 | 64 | 112 | 3.0 | 9.0 | 0.00 | 0.00 | 0.00 | 77 | 1020.2 |
| 20260903191545 | 64 | 97 | 4.0 | 10.0 | 0.00 | 0.00 | 0.00 | 77 | 1020.2 |
| 20260903191042 | 64 | 107 | 5.0 | 9.0 | 0.00 | 0.00 | 0.00 | 77 | 1020.3 |
| 20260903190542 | 64 | 142 | 7.0 | 11.0 | 0.00 | 0.00 | 0.00 | 76 | 1020.3 |
| 20260903190042 | 64 | 84 | 5.0 | 6.0 | 0.00 | 0.00 | 0.00 | 76 | 1020.4 |
| 20260903185544 | 65 | 122 | 4.0 | 7.0 | 0.00 | 0.00 | 0.00 | 76 | 1020.5 |
| 20260903185042 | 65 | 142 | 2.0 | 10.0 | 0.00 | 0.00 | 0.00 | 75 | 1020.4 |
| 20260903184548 | 65 | 169 | 4.0 | 9.0 | 0.00 | 0.00 | 0.00 | 74 | 1020.4 |
| 20260903184045 | 65 | 139 | 3.0 | 9.0 | 0.00 | 0.00 | 0.00 | 74 | 1020.4 |
| 20260903183542 | 65 | 214 | 2.0 | 9.0 | 0.00 | 0.00 | 0.00 | 74 | 1020.5 |
| 20260903183042 | 65 | 158 | 3.0 | 10.0 | 0.00 | 0.00 | 0.00 | 73 | 1020.6 |
| 20260903182550 | 65 | 158 | 5.0 | 9.0 | 0.00 | 0.00 | 0.00 | 73 | 1020.6 |
| 20260903182042 | 66 | 201 | 6.0 | 11.0 | 0.00 | 0.00 | 0.00 | 72 | 1020.5 |
| 20260903181542 | 66 | 127 | 11.0 | 14.0 | 0.00 | 0.00 | 0.00 | 72 | 1020.3 |
| 20260903181042 | 66 | 170 | 5.0 | 10.0 | 0.00 | 0.00 | 0.00 | 71 | 1020.4 |
| 20260903180542 | 66 | 156 | 3.0 | 10.0 | 0.00 | 0.00 | 0.00 | 70 | 1020.2 |
| 20260903180048 | 66 | 190 | 4.0 | 8.0 | 0.00 | 0.00 | 0.00 | 70 | 1020.1 |
| 20260903175550 | 67 | 190 | 7.0 | 13.0 | 0.00 | 0.00 | 0.00 | 69 | 1020.2 |
| 20260903175042 | 67 | 231 | 10.0 | 19.0 | 0.00 | 0.00 | 0.00 | 69 | 1020.2 |
| 20260903174543 | 67 | 208 | 6.0 | 14.0 | 0.00 | 0.00 | 0.00 | 68 | 1020.2 |
| 20260903174048 | 67 | 212 | 8.0 | 12.0 | 0.00 | 0.00 | 0.00 | 68 | 1020.1 |
| 20260903173542 | 67 | 239 | 8.0 | 15.0 | 0.00 | 0.00 | 0.00 | 68 | 1020.1 |
| 20260903173048 | 67 | 149 | 3.0 | 15.0 | 0.00 | 0.00 | 0.00 | 68 | 1020.1 |
| 20260903172550 | 67 | 206 | 3.0 | 15.0 | 0.00 | 0.00 | 0.00 | 67 | 1020.0 |
| 20260903172048 | 67 | 216 | 7.0 | 13.0 | 0.00 | 0.00 | 0.00 | 67 | 1020.0 |
| 20260903171542 | 68 | 206 | 1.0 | 13.0 | 0.00 | 0.00 | 0.00 | 66 | 1019.9 |
| 20260903171045 | 68 | 208 | 8.0 | 14.0 | 0.00 | 0.00 | 0.00 | 65 | 1020.0 |
| 20260903170545 | 68 | 218 | 7.0 | 21.0 | 0.00 | 0.00 | 0.00 | 65 | 1019.9 |
| 20260903170044 | 68 | 192 | 9.0 | 15.0 | 0.00 | 0.00 | 0.00 | 64 | 1020.0 |
| 20260903165550 | 68 | 77 | 7.0 | 17.0 | 0.00 | 0.00 | 0.00 | 64 | 1019.9 |
| 20260903165042 | 69 | 124 | 5.0 | 15.0 | 0.00 | 0.00 | 0.00 | 63 | 1019.8 |
| 20260903164545 | 69 | 221 | 9.0 | 14.0 | 0.00 | 0.00 | 0.00 | 63 | 1019.6 |
| 20260903164042 | 69 | 205 | 7.0 | 17.0 | 0.00 | 0.00 | 0.00 | 62 | 1019.5 |
| 20260903163550 | 69 | 181 | 10.0 | 12.0 | 0.00 | 0.00 | 0.00 | 61 | 1019.5 |
| 20260903163045 | 70 | 145 | 5.0 | 12.0 | 0.00 | 0.00 | 0.00 | 61 | 1019.6 |
| 20260903162542 | 70 | 231 | 6.0 | 15.0 | 0.00 | 0.00 | 0.00 | 60 | 1019.6 |
| 20260903162042 | 70 | 100 | 6.0 | 15.0 | 0.00 | 0.00 | 0.00 | 59 | 1019.5 |
| 20260903161545 | 70 | 201 | 10.0 | 17.0 | 0.00 | 0.00 | 0.00 | 58 | 1019.5 |
| 20260903161042 | 70 | 199 | 5.0 | 15.0 | 0.00 | 0.00 | 0.00 | 58 | 1019.5 |
| 20260903160544 | 70 | 237 | 5.0 | 17.0 | 0.00 | 0.00 | 0.00 | 58 | 1019.3 |
| 20260903160045 | 71 | 184 | 6.0 | 17.0 | 0.00 | 0.00 | 0.00 | 57 | 1019.4 |
| 20260903155542 | 72 | 211 | 13.0 | 14.0 | 0.00 | 0.00 | 0.00 | 55 | 1019.4 |
| 20260903155045 | 72 | 210 | 4.0 | 9.0 | 0.00 | 0.00 | 0.00 | 54 | 1019.3 |
| 20260903154548 | 72 | 138 | 1.0 | 13.0 | 0.00 | 0.00 | 0.00 | 54 | 1019.3 |
| 20260903154045 | 72 | 174 | 11.0 | 14.0 | 0.00 | 0.00 | 0.00 | 53 | 1019.3 |
| 20260903153544 | 72 | 184 | 10.0 | 10.0 | 0.00 | 0.00 | 0.00 | 53 | 1019.2 |
| 20260903153042 | 72 | 182 | 5.0 | 11.0 | 0.00 | 0.00 | 0.00 | 53 | 1019.2 |
| 20260903152545 | 72 | 170 | 5.0 | 12.0 | 0.00 | 0.00 | 0.00 | 52 | 1019.1 |
| 20260903152042 | 72 | 154 | 7.0 | 8.0 | 0.00 | 0.00 | 0.00 | 52 | 1019.1 |
| 20260903151542 | 72 | 126 | 4.0 | 9.0 | 0.00 | 0.00 | 0.00 | 52 | 1019.2 |
| 20260903151042 | 72 | 187 | 6.0 | 10.0 | 0.00 | 0.00 | 0.00 | 52 | 1019.2 |
| 20260903150550 | 72 | 168 | 3.0 | 12.0 | 0.00 | 0.00 | 0.00 | 51 | 1019.3 |
| 20260903150051 | 72 | 146 | 4.0 | 11.0 | 0.00 | 0.00 | 0.00 | 51 | 1019.3 |
| 20260903145545 | 72 | 177 | 5.0 | 12.0 | 0.00 | 0.00 | 0.00 | 51 | 1019.3 |
| 20260903145042 | 72 | 149 | 5.0 | 11.0 | 0.00 | 0.00 | 0.00 | 51 | 1019.3 |
| 20260903144551 | 72 | 163 | 8.0 | 13.0 | 0.00 | 0.00 | 0.00 | 51 | 1019.3 |
| 20260903144042 | 73 | 120 | 7.0 | 11.0 | 0.00 | 0.00 | 0.00 | 51 | 1019.4 |
| 20260903143550 | 73 | 119 | 5.0 | 7.0 | 0.00 | 0.00 | 0.00 | 51 | 1019.3 |
| 20260903143045 | 72 | 149 | 6.0 | 6.0 | 0.00 | 0.00 | 0.00 | 51 | 1019.3 |
| 20260903142545 | 72 | 135 | 5.0 | 9.0 | 0.00 | 0.00 | 0.00 | 51 | 1019.2 |
| 20260903142045 | 72 | 157 | 2.0 | 10.0 | 0.00 | 0.00 | 0.00 | 51 | 1019.2 |
| 20260903141551 | 72 | 141 | 5.0 | 11.0 | 0.00 | 0.00 | 0.00 | 50 | 1019.5 |
| 20260903141045 | 73 | 222 | 8.0 | 11.0 | 0.00 | 0.00 | 0.00 | 50 | 1019.5 |
| 20260903140544 | 73 | 179 | 6.0 | 12.0 | 0.00 | 0.00 | 0.00 | 49 | 1019.4 |
| 20260903140045 | 73 | 113 | 4.0 | 9.0 | 0.00 | 0.00 | 0.00 | 50 | 1019.4 |
| 20260903135546 | 73 | 168 | 6.0 | 7.0 | 0.00 | 0.00 | 0.00 | 50 | 1019.5 |
| 20260903135045 | 73 | 153 | 3.0 | 9.0 | 0.00 | 0.00 | 0.00 | 50 | 1019.6 |
| 20260903134542 | 73 | 207 | 7.0 | 8.0 | 0.00 | 0.00 | 0.00 | 50 | 1019.5 |
| 20260903134042 | 72 | 207 | 1.0 | 8.0 | 0.00 | 0.00 | 0.00 | 50 | 1019.5 |
| 20260903133544 | 72 | 181 | 5.0 | 12.0 | 0.00 | 0.00 | 0.00 | 50 | 1019.7 |
| 20260903133045 | 72 | 272 | 2.0 | 12.0 | 0.00 | 0.00 | 0.00 | 50 | 1019.9 |
| 20260903132545 | 72 | 224 | 3.0 | 8.0 | 0.00 | 0.00 | 0.00 | 50 | 1019.7 |
| 20260903132048 | 72 | 156 | 3.0 | 11.0 | 0.00 | 0.00 | 0.00 | 50 | 1019.6 |
| 20260903131545 | 72 | 122 | 5.0 | 13.0 | 0.00 | 0.00 | 0.00 | 49 | 1019.4 |
| 20260903131042 | 73 | 132 | 13.0 | 13.0 | 0.00 | 0.00 | 0.00 | 48 | 1019.5 |
| 20260903130547 | 73 | 165 | 5.0 | 11.0 | 0.00 | 0.00 | 0.00 | 49 | 1019.7 |
| 20260903130045 | 73 | 158 | 12.0 | 12.0 | 0.00 | 0.00 | 0.00 | 49 | 1019.6 |
| 20260903125545 | 72 | 233 | 4.0 | 14.0 | 0.00 | 0.00 | 0.00 | 49 | 1019.4 |
| 20260903125042 | 72 | 106 | 6.0 | 14.0 | 0.00 | 0.00 | 0.00 | 50 | 1019.5 |
| 20260903124545 | 72 | 207 | 13.0 | 18.0 | 0.00 | 0.00 | 0.00 | 50 | 1019.4 |
| 20260903124042 | 72 | 189 | 15.0 | 17.0 | 0.00 | 0.00 | 0.00 | 51 | 1019.5 |
| 20260903123547 | 72 | 203 | 9.0 | 20.0 | 0.00 | 0.00 | 0.00 | 50 | 1019.6 |
| 20260903123042 | 72 | 227 | 9.0 | 15.0 | 0.00 | 0.00 | 0.00 | 50 | 1019.5 |
| 20260903122542 | 72 | 106 | 7.0 | 15.0 | 0.00 | 0.00 | 0.00 | 49 | 1019.4 |
| 20260903122042 | 72 | 184 | 6.0 | 14.0 | 0.00 | 0.00 | 0.00 | 49 | 1019.6 |
| 20260903121545 | 72 | 245 | 5.0 | 14.0 | 0.00 | 0.00 | 0.00 | 50 | 1019.6 |
| 20260903121042 | 71 | 213 | 2.0 | 16.0 | 0.00 | 0.00 | 0.00 | 49 | 1019.8 |
| 20260903120550 | 71 | 252 | 5.0 | 14.0 | 0.00 | 0.00 | 0.00 | 49 | 1019.7 |
| 20260903120042 | 72 | 164 | 12.0 | 17.0 | 0.00 | 0.00 | 0.00 | 49 | 1019.8 |
| 20260903115551 | 72 | 181 | 4.0 | 19.0 | 0.00 | 0.00 | 0.00 | 50 | 1019.7 |
| 20260903115042 | 72 | 217 | 4.0 | 13.0 | 0.00 | 0.00 | 0.00 | 51 | 1019.6 |
| 20260903114542 | 71 | 179 | 9.0 | 13.0 | 0.00 | 0.00 | 0.00 | 51 | 1019.7 |
| 20260903114042 | 72 | 129 | 6.0 | 14.0 | 0.00 | 0.00 | 0.00 | 51 | 1019.7 |
| 20260903113544 | 72 | 160 | 9.0 | 11.0 | 0.00 | 0.00 | 0.00 | 50 | 1019.8 |
| 20260903113045 | 72 | 202 | 4.0 | 12.0 | 0.00 | 0.00 | 0.00 | 50 | 1019.8 |
| 20260903112545 | 72 | 210 | 4.0 | 13.0 | 0.00 | 0.00 | 0.00 | 50 | 1019.7 |
| 20260903112042 | 71 | 104 | 4.0 | 9.0 | 0.00 | 0.00 | 0.00 | 51 | 1019.8 |
| 20260903111545 | 71 | 174 | 1.0 | 8.0 | 0.00 | 0.00 | 0.00 | 51 | 1019.9 |
| 20260903111051 | 71 | 156 | 6.0 | 8.0 | 0.00 | 0.00 | 0.00 | 52 | 1020.1 |
| 20260903110544 | 71 | 133 | 5.0 | 10.0 | 0.00 | 0.00 | 0.00 | 51 | 1020.2 |
| 20260903110042 | 71 | 215 | 8.0 | 12.0 | 0.00 | 0.00 | 0.00 | 50 | 1020.3 |
| 20260903105542 | 71 | 164 | 4.0 | 9.0 | 0.00 | 0.00 | 0.00 | 50 | 1020.2 |
| 20260903105051 | 70 | 206 | 8.0 | 13.0 | 0.00 | 0.00 | 0.00 | 50 | 1020.4 |
| 20260903104542 | 70 | 219 | 4.0 | 12.0 | 0.00 | 0.00 | 0.00 | 50 | 1020.5 |
| 20260903104042 | 71 | 212 | 7.0 | 11.0 | 0.00 | 0.00 | 0.00 | 50 | 1020.7 |
| 20260903103550 | 70 | 114 | 5.0 | 11.0 | 0.00 | 0.00 | 0.00 | 51 | 1020.6 |
| 20260903103045 | 71 | 119 | 6.0 | 10.0 | 0.00 | 0.00 | 0.00 | 52 | 1020.6 |
| 20260903102542 | 71 | 162 | 5.0 | 11.0 | 0.00 | 0.00 | 0.00 | 52 | 1020.7 |
| 20260903102042 | 71 | 237 | 7.0 | 9.0 | 0.00 | 0.00 | 0.00 | 54 | 1020.6 |
| 20260903101548 | 71 | 130 | 6.0 | 11.0 | 0.00 | 0.00 | 0.00 | 52 | 1020.6 |
| 20260903101045 | 71 | 157 | 4.0 | 10.0 | 0.00 | 0.00 | 0.00 | 54 | 1020.6 |
| 20260903100550 | 70 | 201 | 5.0 | 8.0 | 0.00 | 0.00 | 0.00 | 54 | 1020.7 |
| 20260903100048 | 71 | 190 | 8.0 | 13.0 | 0.00 | 0.00 | 0.00 | 52 | 1020.8 |
| 20260903095542 | 70 | 258 | 4.0 | 7.0 | 0.00 | 0.00 | 0.00 | 54 | 1020.7 |
| 20260903095042 | 70 | 100 | 7.0 | 11.0 | 0.00 | 0.00 | 0.00 | 54 | 1020.8 |
| 20260903094545 | 69 | 150 | 9.0 | 12.0 | 0.00 | 0.00 | 0.00 | 54 | 1020.8 |
| 20260903094045 | 69 | 184 | 7.0 | 12.0 | 0.00 | 0.00 | 0.00 | 54 | 1020.8 |
| 20260903093544 | 69 | 188 | 6.0 | 13.0 | 0.00 | 0.00 | 0.00 | 55 | 1020.8 |
| 20260903093045 | 69 | 230 | 3.0 | 11.0 | 0.00 | 0.00 | 0.00 | 55 | 1020.8 |
| 20260903092542 | 69 | 247 | 7.0 | 9.0 | 0.00 | 0.00 | 0.00 | 55 | 1020.8 |
| 20260903092045 | 68 | 158 | 6.0 | 10.0 | 0.00 | 0.00 | 0.00 | 55 | 1020.8 |
| 20260903091542 | 68 | 201 | 7.0 | 11.0 | 0.00 | 0.00 | 0.00 | 54 | 1020.8 |
| 20260903091045 | 69 | 197 | 6.0 | 10.0 | 0.00 | 0.00 | 0.00 | 54 | 1020.7 |
| 20260903090547 | 68 | 198 | 5.0 | 13.0 | 0.00 | 0.00 | 0.00 | 53 | 1020.6 |
| 20260903090051 | 69 | 220 | 4.0 | 11.0 | 0.00 | 0.00 | 0.00 | 54 | 1020.7 |
| 20260903085545 | 69 | 191 | 4.0 | 11.0 | 0.00 | 0.00 | 0.00 | 54 | 1020.8 |
| 20260903085051 | 69 | 124 | 5.0 | 9.0 | 0.00 | 0.00 | 0.00 | 53 | 1020.8 |
| 20260903084542 | 69 | 137 | 3.0 | 10.0 | 0.00 | 0.00 | 0.00 | 54 | 1020.7 |
| 20260903084048 | 68 | 146 | 3.0 | 9.0 | 0.00 | 0.00 | 0.00 | 57 | 1020.8 |
| 20260903083544 | 68 | 331 | 4.0 | 12.0 | 0.00 | 0.00 | 0.00 | 57 | 1020.9 |
| 20260903083042 | 68 | 156 | 7.0 | 12.0 | 0.00 | 0.00 | 0.00 | 58 | 1020.8 |
| 20260903082542 | 68 | 160 | 10.0 | 11.0 | 0.00 | 0.00 | 0.00 | 58 | 1020.8 |
| 20260903082042 | 68 | 168 | 6.0 | 9.0 | 0.00 | 0.00 | 0.00 | 59 | 1020.8 |
| 20260903081545 | 68 | 100 | 2.0 | 10.0 | 0.00 | 0.00 | 0.00 | 59 | 1020.8 |
| 20260903081042 | 68 | 112 | 6.0 | 10.0 | 0.00 | 0.00 | 0.00 | 61 | 1020.9 |
| 20260903080544 | 68 | 253 | 2.0 | 5.0 | 0.00 | 0.00 | 0.00 | 64 | 1021.0 |
| 20260903080042 | 68 | 135 | 1.0 | 6.0 | 0.00 | 0.00 | 0.00 | 65 | 1020.9 |